Starlink 31991

operational
NORAD ID: 59963 Int'l Des: 2024-107 Owner: SPXS Country: US Constellation: starlink
LEOCIRCULAR

About Starlink 31991

Description loading...

Live Position

Loading 3D Globe...

Upcoming Passes

Altitude History

Altitude vs Time

uPlot chart will show altitude changes over time

Two-Line Element Set

1 59963U 24107U 25353.65911167 .00000438 00000-0 26934-4 0 9993
2 59963 53.1612 77.2470 0001168 98.1843 261.9290 15.30184841 87546
Epoch: Dec 19, 2025 • Age: 20 hours

Current Status

Altitude 492.5 km
Velocity 7.62 km/s
Sub-Earth Point -48.32°S, 45.2°E
Launch Date Jun 5, 2024
Age 1.5 years
Type internet

Technical Details

Classification Payload
Mass 730.00 kg
Dry Mass 700.00 kg
Total Mass 730.00 kg
Length 0.30 m
Diameter 4.10 m
Span 29.00 m
Shape Box + pan
Manufacturer SPXS
Bus Type Starlink V2M
Phase Status In Orbit
Owner/State SPXS/US

Large Constellations

Loading constellations...